KE5VT Weather Reports


time (UTC)temp
C
wind
direction
speed
KPH
gust
KPH
rain 1hr
cm
rain 24hr
cm
rain mn
cm
humidity
%
barometer
mb
20260506124534 17 132 0.0 0.0 0.00 0.00 0.00 82 1011.1
20260506124032 17 131 0.0 0.0 0.00 0.00 0.00 83 1011.1
20260506123529 17 177 0.0 0.0 0.00 0.00 0.00 83 1011.1
20260506123027 16 170 0.0 0.0 0.00 0.00 0.00 84 1011.2
20260506122523 16 248 0.0 0.0 0.00 0.00 0.00 85 1011.4
20260506122022 16 170 0.0 0.0 0.00 0.00 0.00 84 1011.3
20260506121519 16 258 0.0 0.0 0.00 0.00 0.00 85 1011.3
20260506121015 16 266 0.0 0.0 0.00 0.00 0.00 85 1011.5
20260506120513 16 273 0.0 1.6 0.00 0.00 0.00 85 1011.4
20260506120010 16 346 4.8 6.4 0.00 0.00 0.00 85 1011.2
20260506115508 16 293 0.0 0.0 0.00 0.00 0.00 85 1010.8
20260506115006 16 137 0.0 0.0 0.00 0.00 0.00 85 1010.7
20260506114503 16 153 0.0 0.0 0.00 0.00 0.00 85 1010.5
20260506114002 16 294 0.0 1.6 0.00 0.00 0.00 85 1010.7
20260506113459 16 290 0.0 1.6 0.00 0.00 0.00 85 1010.6
20260506112955 16 290 0.0 0.0 0.00 0.00 0.00 85 1010.8
20260506112453 16 149 0.0 0.0 0.00 0.00 0.00 85 1010.7
20260506111950 16 177 0.0 0.0 0.00 0.00 0.00 85 1010.6
20260506111448 16 98 0.0 0.0 0.00 0.00 0.00 85 1010.5
20260506110945 16 169 0.0 0.0 0.00 0.00 0.00 85 1010.3
20260506110443 16 153 0.0 0.0 0.00 0.00 0.00 85 1010.2
20260506105939 16 97 0.0 0.0 0.00 0.00 0.00 85 1009.9
20260506105435 16 149 0.0 0.0 0.00 0.00 0.00 85 1009.9
20260506104933 16 320 4.8 6.4 0.00 0.00 0.00 85 1009.9
20260506104431 16 200 0.0 0.0 0.00 0.00 0.00 85 1009.8
20260506103929 16 146 0.0 0.0 0.00 0.00 0.00 85 1009.5
20260506103426 16 9 0.0 1.6 0.00 0.00 0.00 86 1009.7
20260506102923 16 155 0.0 0.0 0.00 0.00 0.00 85 1009.5
20260506102421 16 150 0.0 0.0 0.00 0.00 0.00 85 1009.5
20260506101918 16 156 0.0 0.0 0.00 0.00 0.00 85 1009.6
20260506101414 16 301 1.6 6.4 0.00 0.00 0.00 84 1009.7
20260506100911 16 267 0.0 1.6 0.00 0.00 0.00 84 1009.8
20260506100410 16 179 0.0 0.0 0.00 0.00 0.00 84 1010.0
20260506095907 16 199 0.0 0.0 0.00 0.00 0.00 84 1010.0
20260506095406 16 227 0.0 0.0 0.00 0.00 0.00 84 1009.6
20260506094902 16 155 0.0 0.0 0.00 0.00 0.00 84 1009.8
20260506094401 16 171 0.0 0.0 0.00 0.00 0.00 84 1009.6
20260506093858 16 74 0.0 0.0 0.00 0.00 0.00 83 1009.7
20260506093355 16 163 0.0 1.6 0.00 0.00 0.00 83 1009.9
20260506092853 16 246 0.0 1.6 0.00 0.00 0.00 83 1010.0
20260506092351 16 116 0.0 0.0 0.00 0.00 0.00 83 1009.9
20260506091847 16 234 0.0 1.6 0.00 0.00 0.00 83 1009.9
20260506091345 16 242 1.6 3.2 0.00 0.00 0.00 82 1010.0
20260506090842 16 137 0.0 0.0 0.00 0.00 0.00 82 1010.1
20260506090340 16 124 0.0 0.0 0.00 0.00 0.00 81 1009.9
20260506085836 16 236 1.6 3.2 0.00 0.00 0.00 81 1010.1
20260506085332 16 172 4.8 4.8 0.00 0.00 0.00 81 1010.3
20260506084829 16 213 1.6 3.2 0.00 0.00 0.00 81 1010.0
20260506084326 16 143 0.0 0.0 0.00 0.00 0.00 81 1010.0
20260506083822 16 178 0.0 0.0 0.00 0.00 0.00 80 1010.2
20260506083320 16 187 0.0 0.0 0.00 0.00 0.00 80 1010.3
20260506082817 16 194 1.6 1.6 0.00 0.00 0.00 80 1010.2
20260506082314 16 168 0.0 0.0 0.00 0.00 0.00 80 1010.2
20260506081810 16 202 0.0 1.6 0.00 0.00 0.00 80 1010.5
20260506081308 16 142 0.0 1.6 0.00 0.00 0.00 80 1010.6
20260506080806 16 176 0.0 1.6 0.00 0.00 0.00 80 1010.3
20260506080302 16 136 0.0 0.0 0.00 0.00 0.00 80 1010.5
20260506073246 17 213 1.6 1.6 0.00 0.00 0.00 79 1010.7
20260506072743 17 178 0.0 0.0 0.00 0.00 0.00 79 1010.7
20260506072240 17 151 0.0 0.0 0.00 0.00 0.00 79 1010.7
20260506071738 17 188 0.0 0.0 0.00 0.00 0.00 79 1010.7
20260506071236 17 166 0.0 0.0 0.00 0.00 0.00 79 1010.3
20260506070732 17 20 3.2 6.4 0.00 0.00 0.00 78 1010.5
20260506070229 17 161 1.6 3.2 0.00 0.00 0.00 78 1010.6
20260506062206 17 123 0.0 0.0 0.00 0.00 0.00 77 1010.9
20260506061702 17 171 3.2 3.2 0.00 0.00 0.00 76 1010.8
20260506061200 17 141 0.0 1.6 0.00 0.00 0.00 76 1010.9
20260506060659 17 142 4.8 9.7 0.00 0.00 0.00 76 1011.0
20260506060154 17 129 0.0 0.0 0.00 0.00 0.00 76 1011.1
20260506051127 18 139 0.0 0.0 0.00 0.00 0.00 71 1011.1
20260506050625 18 171 0.0 0.0 0.00 0.00 0.00 70 1011.2
20260506050122 18 144 0.0 0.0 0.00 0.00 0.00 70 1011.3
20260506045115 18 334 3.2 4.8 0.00 0.00 0.00 69 1011.3
20260506044613 18 154 0.0 0.0 0.00 0.00 0.00 69 1011.3
20260506044110 18 137 1.6 3.2 0.00 0.00 0.00 68 1011.2
20260506043607 18 115 3.2 4.8 0.00 0.00 0.00 68 1011.2
20260506043105 18 154 3.2 4.8 0.00 0.00 0.00 68 1011.0
20260506042604 18 178 6.4 6.4 0.00 0.00 0.00 67 1011.1
20260506042101 18 138 0.0 0.0 0.00 0.00 0.00 67 1011.4
20260506041600 19 187 0.0 0.0 0.00 0.00 0.00 67 1011.2
20260506041056 19 155 3.2 4.8 0.00 0.00 0.00 67 1011.1
20260506040554 19 148 0.0 0.0 0.00 0.00 0.00 67 1011.0
20260506040050 19 156 0.0 1.6 0.00 0.00 0.00 66 1011.1
20260506035548 19 140 0.0 3.2 0.00 0.00 0.00 66 1010.8
20260506035044 19 132 0.0 0.0 0.00 0.00 0.00 66 1011.0
20260506034541 19 166 8.0 11.3 0.00 0.00 0.00 65 1011.1
20260506034038 19 145 0.0 0.0 0.00 0.00 0.00 65 1010.9
20260506033536 19 139 1.6 3.2 0.00 0.00 0.00 65 1010.9
20260506033032 20 106 0.0 1.6 0.00 0.00 0.00 65 1010.7
20260506032530 20 192 0.0 0.0 0.00 0.00 0.00 65 1010.8
20260506032026 20 283 3.2 4.8 0.00 0.00 0.00 65 1010.9
20260506031524 20 230 3.2 4.8 0.00 0.00 0.00 64 1010.8
20260506031021 20 143 0.0 0.0 0.00 0.00 0.00 64 1010.7
20260506030519 20 151 1.6 1.6 0.00 0.00 0.00 63 1010.6
20260506030016 20 150 4.8 4.8 0.00 0.00 0.00 62 1010.7
20260506025512 20 115 0.0 0.0 0.00 0.00 0.00 62 1010.6
20260506025009 20 125 4.8 4.8 0.00 0.00 0.00 61 1010.7
20260506024506 20 192 4.8 9.7 0.00 0.00 0.00 60 1010.7
20260506024002 20 123 1.6 3.2 0.00 0.00 0.00 59 1010.5
20260506023458 20 167 0.0 0.0 0.00 0.00 0.00 58 1010.8
20260506022955 20 160 0.0 1.6 0.00 0.00 0.00 58 1010.9
20260506022453 20 167 1.6 3.2 0.00 0.00 0.00 57 1010.7
20260506021951 20 138 0.0 1.6 0.00 0.00 0.00 56 1010.8
20260506021448 19 127 0.0 1.6 0.00 0.00 0.00 56 1010.8
20260506020945 20 108 0.0 0.0 0.00 0.00 0.00 57 1010.8
20260506020443 20 153 0.0 0.0 0.00 0.00 0.00 55 1010.9
20260506015940 20 129 0.0 0.0 0.00 0.00 0.00 56 1010.8
20260506015437 20 127 0.0 0.0 0.00 0.00 0.00 56 1010.7
20260506014934 20 140 0.0 0.0 0.00 0.00 0.00 57 1010.7
20260506014431 20 141 0.0 0.0 0.00 0.00 0.00 55 1010.9
20260506013927 20 141 0.0 0.0 0.00 0.00 0.00 55 1010.7
20260506013426 20 142 0.0 0.0 0.00 0.00 0.00 55 1010.5
20260506012921 20 110 0.0 0.0 0.00 0.00 0.00 54 1010.6
20260506012418 20 126 0.0 0.0 0.00 0.00 0.00 52 1010.7
20260506011915 20 125 0.0 0.0 0.00 0.00 0.00 52 1010.6
20260506011412 21 125 0.0 0.0 0.00 0.00 0.00 53 1010.4
20260506010909 21 125 0.0 0.0 0.00 0.00 0.00 51 1010.5
20260506010408 21 125 0.0 0.0 0.00 0.00 0.00 50 1010.4
20260506005904 21 125 0.0 0.0 0.00 0.00 0.00 50 1010.3
20260506005402 21 151 0.0 0.0 0.00 0.00 0.00 48 1010.2
20260506004856 22 151 0.0 0.0 0.00 0.00 0.00 48 1010.3
20260506004355 22 151 0.0 0.0 0.00 0.00 0.00 48 1010.2
20260506003851 22 156 0.0 0.0 0.00 0.00 0.00 47 1010.1
20260506003347 22 130 0.0 0.0 0.00 0.00 0.00 46 1010.1
20260506002843 22 131 0.0 0.0 0.00 0.00 0.00 46 1010.0
20260506002340 22 132 0.0 0.0 0.00 0.00 0.00 47 1010.0
20260506001835 23 147 0.0 0.0 0.00 0.00 0.00 45 1009.9
20260506001333 23 147 0.0 0.0 0.00 0.00 0.00 44 1009.9
20260506000830 23 127 0.0 0.0 0.00 0.00 0.00 44 1009.9
20260506000329 23 139 0.0 0.0 0.00 0.00 0.00 44 1010.0
20260505235824 23 139 0.0 0.0 0.00 0.00 0.00 42 1009.9
20260505235322 23 147 0.0 0.0 0.00 0.00 0.00 42 1009.8
20260505234818 24 128 0.0 0.0 0.00 0.00 0.00 42 1010.0
20260505234316 24 115 0.0 0.0 0.00 0.00 0.00 41 1009.8
20260505233813 24 168 0.0 1.6 0.00 0.00 0.00 40 1010.0
20260505233311 24 151 0.0 0.0 0.00 0.00 0.00 41 1009.9
20260505232808 24 151 0.0 0.0 0.00 0.00 0.00 41 1009.9
20260505232306 25 143 0.0 0.0 0.00 0.00 0.00 40 1009.8
20260505231801 25 291 3.2 4.8 0.00 0.00 0.00 40 1010.0
20260505231300 25 177 0.0 1.6 0.00 0.00 0.00 39 1010.0
20260505230758 25 281 8.0 11.3 0.00 0.00 0.00 39 1009.9
20260505230255 25 161 0.0 0.0 0.00 0.00 0.00 39 1010.0
20260505225751 25 195 0.0 0.0 0.00 0.00 0.00 39 1010.0
20260505225249 25 138 0.0 0.0 0.00 0.00 0.00 39 1010.0
20260505224743 26 226 0.0 0.0 0.00 0.00 0.00 38 1009.8
20260505224241 26 165 0.0 1.6 0.00 0.00 0.00 37 1009.9
20260505223739 26 177 0.0 1.6 0.00 0.00 0.00 36 1009.8
20260505223235 26 183 0.0 3.2 0.00 0.00 0.00 36 1010.0
20260505222731 26 180 0.0 0.0 0.00 0.00 0.00 36 1009.8
20260505222227 26 207 0.0 1.6 0.00 0.00 0.00 37 1010.1
20260505221725 27 136 1.6 6.4 0.00 0.00 0.00 35 1009.9
20260505221221 26 146 0.0 0.0 0.00 0.00 0.00 36 1010.2
20260505220718 27 209 4.8 6.4 0.00 0.00 0.00 35 1010.0
20260505220216 26 157 3.2 3.2 0.00 0.00 0.00 36 1010.0
20260505215714 27 139 0.0 1.6 0.00 0.00 0.00 36 1010.2
20260505215211 26 339 0.0 0.0 0.00 0.00 0.00 37 1010.2
20260505214709 25 145 0.0 0.0 0.00 0.00 0.00 38 1010.1
20260505214206 25 129 1.6 3.2 0.00 0.00 0.00 37 1010.0
20260505213703 26 151 0.0 0.0 0.00 0.00 0.00 37 1010.1
20260505213201 26 145 6.4 9.7 0.00 0.00 0.00 37 1010.3
20260505212656 25 143 0.0 1.6 0.00 0.00 0.00 39 1010.2
20260505212154 26 199 0.0 0.0 0.00 0.00 0.00 39 1010.3
20260505211650 26 233 4.8 9.7 0.00 0.00 0.00 38 1010.3
20260505211148 26 240 4.8 6.4 0.00 0.00 0.00 37 1010.2
20260505210644 25 126 3.2 3.2 0.00 0.00 0.00 39 1010.3
20260505210141 25 133 1.6 3.2 0.00 0.00 0.00 38 1010.6
20260505205638 26 237 4.8 9.7 0.00 0.00 0.00 39 1010.4
20260505205137 26 276 8.0 11.3 0.00 0.00 0.00 38 1010.4
20260505204633 25 220 4.8 6.4 0.00 0.00 0.00 39 1010.6
20260505204131 25 244 8.0 11.3 0.00 0.00 0.00 39 1010.7
20260505203627 25 232 3.2 3.2 0.00 0.00 0.00 39 1010.6
20260505203125 25 135 0.0 0.0 0.00 0.00 0.00 40 1010.7
20260505202620 26 237 9.7 14.5 0.00 0.00 0.00 39 1010.7
20260505202116 26 171 0.0 0.0 0.00 0.00 0.00 40 1010.6
20260505201613 26 131 0.0 0.0 0.00 0.00 0.00 39 1010.8
20260505201111 26 242 0.0 0.0 0.00 0.00 0.00 39 1010.8
20260505200609 26 124 4.8 6.4 0.00 0.00 0.00 38 1011.0
20260505200105 26 167 0.0 0.0 0.00 0.00 0.00 39 1010.7
20260505195601 26 255 3.2 3.2 0.00 0.00 0.00 39 1010.8
20260505195059 25 166 3.2 3.2 0.00 0.00 0.00 38 1010.9
20260505194556 25 85 3.2 4.8 0.00 0.00 0.00 40 1011.0
20260505194051 25 268 17.7 20.9 0.00 0.00 0.00 39 1011.1
20260505193549 26 201 9.7 14.5 0.00 0.00 0.00 39 1011.2
20260505193046 25 175 0.0 0.0 0.00 0.00 0.00 41 1011.5
20260505192545 25 174 1.6 3.2 0.00 0.00 0.00 40 1011.4
20260505192042 26 313 4.8 6.4 0.00 0.00 0.00 39 1011.3
20260505191540 25 158 3.2 3.2 0.00 0.00 0.00 40 1011.5
20260505191038 26 144 4.8 6.4 0.00 0.00 0.00 38 1011.5
20260505190532 26 33 0.0 1.6 0.00 0.00 0.00 39 1011.7
20260505190028 26 218 0.0 3.2 0.00 0.00 0.00 38 1011.6
20260505185525 26 251 4.8 9.7 0.00 0.00 0.00 38 1011.6
20260505185022 26 181 3.2 6.4 0.00 0.00 0.00 38 1011.9
20260505184519 25 226 8.0 11.3 0.00 0.00 0.00 40 1011.9
20260505184015 26 249 0.0 1.6 0.00 0.00 0.00 38 1012.0
20260505183512 26 350 4.8 6.4 0.00 0.00 0.00 38 1012.1
20260505183009 25 70 3.2 4.8 0.00 0.00 0.00 40 1012.2
20260505182506 25 230 8.0 11.3 0.00 0.00 0.00 40 1012.1
20260505182002 26 305 1.6 3.2 0.00 0.00 0.00 38 1012.3
20260505181459 26 305 1.6 3.2 0.00 0.00 0.00 38 1012.3
20260505180956 25 144 0.0 0.0 0.00 0.00 0.00 39 1012.3
20260505180452 25 196 1.6 1.6 0.00 0.00 0.00 39 1012.4
20260505175949 25 137 3.2 4.8 0.00 0.00 0.00 38 1012.2
20260505175445 26 199 1.6 3.2 0.00 0.00 0.00 41 1012.6
20260505174942 25 115 0.0 0.0 0.00 0.00 0.00 41 1012.5
20260505174439 26 266 14.5 16.1 0.00 0.00 0.00 38 1012.5
20260505173935 25 158 1.6 3.2 0.00 0.00 0.00 39 1012.4
20260505173432 25 141 0.0 1.6 0.00 0.00 0.00 42 1012.6
20260505172929 25 292 8.0 9.7 0.00 0.00 0.00 41 1012.5
20260505172428 24 198 9.7 14.5 0.00 0.00 0.00 43 1012.3
20260505171926 25 263 4.8 6.4 0.00 0.00 0.00 41 1012.3
20260505171424 25 249 6.4 9.7 0.00 0.00 0.00 42 1012.4
20260505170920 23 230 3.2 3.2 0.00 0.00 0.00 43 1012.4
20260505170417 23 258 4.8 6.4 0.00 0.00 0.00 45 1012.5
20260505165912 24 293 11.3 12.9 0.00 0.00 0.00 43 1012.7
20260505165408 26 243 4.8 6.4 0.00 0.00 0.00 42 1012.6
20260505164904 25 296 0.0 0.0 0.00 0.00 0.00 39 1012.6
20260505164401 25 271 8.0 11.3 0.00 0.00 0.00 42 1012.8
20260505163859 25 277 6.4 11.3 0.00 0.00 0.00 41 1012.8
20260505163358 24 278 3.2 3.2 0.00 0.00 0.00 43 1012.8
20260505162856 23 250 1.6 1.6 0.00 0.00 0.00 46 1012.9
20260505162351 23 281 9.7 12.9 0.00 0.00 0.00 47 1013.1
20260505161849 22 132 0.0 0.0 0.00 0.00 0.00 49 1013.1
20260505161345 22 239 4.8 4.8 0.00 0.00 0.00 51 1013.5
20260505160843 23 178 0.0 0.0 0.00 0.00 0.00 53 1013.2
20260505160341 23 261 6.4 9.7 0.00 0.00 0.00 54 1013.2
20260505153320 21 250 3.2 4.8 0.00 0.00 0.00 62 1013.4
20260505152817 21 16 0.0 0.0 0.00 0.00 0.00 62 1013.6
20260505152314 21 284 11.3 14.5 0.00 0.00 0.00 60 1013.6
20260505151814 21 295 4.8 4.8 0.00 0.00 0.00 64 1013.6
20260505151311 21 252 0.0 1.6 0.00 0.00 0.00 65 1013.8
20260505150808 21 198 0.0 0.0 0.00 0.00 0.00 65 1013.5
20260505150305 20 216 3.2 6.4 0.00 0.00 0.00 65 1013.6
20260505140235 18 270 6.4 9.7 0.00 0.00 0.00 75 1013.4
20260505130159 16 292 4.8 4.8 0.00 0.00 0.00 80 1013.5
20260505124648 15 158 0.0 0.0 0.00 0.00 0.00 80 1013.3